Flag for Colombia Weather past 2 weeks in Cali, Colombia

Now
77 °F

Passing clouds.


Feels Like: 79 °F
Forecast: 70 / 84 °F
Wind: 9 mph from North

Location: Cali / Alfonso Bonillaaragon

Current Time: Jan 28, 2015 at 8:09:45 PM

Latest Report: Jan 28, 2015 at 7:00 PM


Visibility: N/A

Pressure: 29.83 "Hg

Humidity: 61%

Dew point: 63 °F

Location of CaliLocation

Historic Weather in Cali — Graph

°F

Cali temperature yesterday

Maximum temperature yesterday: 88 °F (at 2:00 PM)
Minimum temperature yesterday: 66 °F (at 2:00 AM)
Average temperature yesterday: 74 °F

Past Weeks' High & Low Weather Summary

 TemperatureHumidityPressure
High95 °F (Jan 15, 7:00 PM)100% (Jan 15, 7:00 AM)30.12 "Hg (Jan 15, 7:00 AM)
Low64 °F (Jan 18, 3:00 AM)39% (Jan 15, 7:00 PM)29.79 "Hg (Jan 25, 4:00 PM)
Average74 °F76%29.97 "Hg
* Reported Jan 13 7:00 PM — Jan 28 7:00 PM, Cali, Weather by CustomWeather, © 2014

Note: Actual official high and low records may vary slightly from our data, if they occured in-between our weather recording intervals... More about our weather records

Advertising

Cali weather history for previous 24 hours

 ConditionsComfort  
Time TempWeatherWind HumidityBarometerVisibility
7:00 PM
Jan 28
77 °FPassing clouds.9 mph61%29.83 "HgN/A
6:00 PM82 °FScattered clouds.12 mph58%29.81 "HgN/A
5:00 PM84 °FWarm.12 mph55%29.80 "Hg90 mi
4:00 PM90 °FScattered clouds.9 mph43%29.80 "HgN/A
3:00 PM68 °FScattered clouds.3 mph94%29.81 "HgN/A
2:00 PM86 °FScattered clouds.5 mph52%29.85 "HgN/A
1:00 PM86 °FScattered clouds.6 mph49%29.89 "HgN/A
12:00 PM82 °FPartly sunny.6 mph55%29.92 "HgN/A
11:00 AM81 °FScattered clouds.5 mph62%29.96 "HgN/A
10:00 AM77 °FScattered clouds.3 mph69%29.99 "Hg6 mi
9:00 AM72 °FBroken clouds.No wind83%29.99 "Hg6 mi
8:00 AM72 °FScattered clouds.No wind83%29.98 "HgN/A
7:00 AM68 °FPartly sunny.2 mph88%29.96 "HgN/A
6:00 AM68 °FPartly cloudy.5 mph94%29.95 "HgN/A
5:00 AM68 °FPassing clouds.2 mph88%29.94 "HgN/A
4:00 AM66 °FPartly cloudy.3 mph94%29.93 "HgN/A
3:00 AM68 °FPassing clouds.3 mph88%29.94 "HgN/A
1:00 AM68 °FPassing clouds.No wind94%29.96 "HgN/A
12:00 AM70 °FPassing clouds.3 mph88%29.98 "HgN/A
11:00 PM
Jan 27
70 °FPassing clouds.No wind88%29.99 "HgN/A
10:00 PM70 °FPassing clouds.2 mph83%29.99 "HgN/A
9:00 PM70 °FPartly cloudy.5 mph88%29.99 "HgN/A
8:00 PM72 °FScattered showers. Partly cloudy.3 mph83%29.97 "Hg6 mi
Weather by CustomWeather, © 2014

See weather overviewHow to use our weather pages